Weather Roundup
Issued by NWS Springfield, MO

Home | Current Version | Previous Version | Text Only | Print | Product List | Glossary On
Versions: 1 2 3 4 5 6 7 8 9 10 11 12 13 14 15 16 17 18 19 20 21 22 23 24 25 26 27 28 29 30 31 32 33 34 35 36 37 38 39 40 41 42 43 44 45 46 47 48 49 50
000
NZUS99 KSGF 121659
HRRSGF

HOURLY WEATHER
NATIONAL WEATHER SERVICE SPRINGFIELD MO
1200 PM CDT SAT JUL 12 2014

......SGF CWA......

CITY           SKY/WX    TMP DP  RH WIND       PRES   REMARKS
SPRINGFIELD    MOSUNNY   87  67  51 W16       30.14F HX  90
JOPLIN         MOSUNNY   91  64  40 SW17G24   30.12S HX  92
WEST PLAINS    SUNNY     86  69  56 W12       30.18S HX  90
ROLLA          MOSUNNY   89  67  47 SW12      30.11F HX  92
OSAGE BEACH    MOSUNNY   88  70  55 W10       30.11S HX  92
BRANSON        SUNNY     91  68  46 W7        30.18S HX  95

......SURROUNDING SGF CWA......

CITY           SKY/WX    TMP DP  RH WIND       PRES   REMARKS
CHANUTE        SUNNY     89  68  49 SW13      30.09S HX  93
PARSONS        SUNNY     88  69  53 SW10      30.11S HX  92
COFFEYVILLE    SUNNY     89  68  49 SW13      30.09S HX  93
EMPORIA        SUNNY     90  69  50 SW15G22   30.05F HX  94
SILOAM SPRINGS SUNNY     88  66  48 SW14      30.17F HX  90
HARRISON AR    SUNNY     89  67  47 W7        30.18S HX  92
NEAR YELLVILLE   N/A     90  68  48 SW3       30.15F HX  93

......KANSAS AND MISSOURI......

CITY           SKY/WX    TMP DP  RH WIND       PRES   REMARKS
KANSAS CTY INT PTSUNNY   86  71  60 SW12      30.04F HX  91
DOWNTOWN KC    PTSUNNY   89  69  51 S13G21    30.03F HX  93
COLUMBIA       PTSUNNY   87  71  58 SW12      30.09S HX  93
SEDALIA        PTSUNNY   87  71  58 SW13      30.09S HX  93
ST JOSEPH      MOSUNNY   86  71  60 SW9       30.01F HX  91
ST LOUIS       PTSUNNY   90  72  55 SW14      30.10S HX  97
SPIRIT OF STL  MOSUNNY   90  72  55 SW8       30.07F HX  97
KIRKSVILLE     CLOUDY    85  73  67 SW7       30.06S HX  91
WICHITA        MOSUNNY   88  66  48 SW18G29   30.07F HX  90
TOPEKA         MOSUNNY   90  68  48 SW9       30.02S HX  94
OLATHE         PTSUNNY   86  70  58 S9        30.05F HX  90

......TENNESSEE......

CITY           SKY/WX    TMP DP  RH WIND       PRES   REMARKS
MEMPHIS        MOSUNNY   90  72  55 CALM      30.16F HX  97
NASHVILLE      PTSUNNY   91  62  37 CALM      30.18F HX  91

......ARKANSAS.......

CITY           SKY/WX    TMP DP  RH WIND       PRES   REMARKS
FAYETTEVILLE   SUNNY     86  71  60 S12       30.17F HX  91
FT SMITH       SUNNY     90  73  57 SW9       30.13F HX  98
LITTLE ROCK    MOSUNNY   90  73  57 VRB5      30.15F HX  98

......OKLAHOMA.......

CITY           SKY/WX    TMP DP  RH WIND       PRES   REMARKS
TULSA          MOSUNNY   91  66  43 SW12G17   30.10S HX  93
PONCA CITY     SUNNY     90  65  43 SW13G18   30.09S HX  92
MCALESTER      SUNNY     88  69  53 S12       30.15F HX  92
OKLAHOMA CITY  SUNNY     89  64  43 SW14      30.13F HX  90

......IOWA............

CITY           SKY/WX    TMP DP  RH WIND       PRES   REMARKS
DES MOINES     CLOUDY    82  72  71 S8        29.98F
QUAD CITIES    PTSUNNY   80  71  74 SW5       30.02S

......ILLINOIS........

CITY           SKY/WX    TMP DP  RH WIND       PRES   REMARKS
QUINCY         PTSUNNY   83  71  67 SW8       30.06F
CHICAGO        CLOUDY    73  68  84 S16       30.01F



USA.gov is the U.S. government's official web portal to all federal, state and local government web resources and services.